Location: Fontenoy
(49.4072°N, 3.2008°E)
Time: 07:18:52
(UTC+00:00)

ACS3 Solar Sail - Pass Details

Date: 15 May 2026
Orbit: 883 x 949 km, 97.2° (Epoch: 5 June)

Event Time Altitude Azimuth Distance (km) Brightness Sun altitude
Rises 23:28:47 0° 21° (NNE) 3,503 5.8 -21.5°
Reaches altitude 10° 23:31:41 10° 35° (NE) 2,555 4.7 -21.5°
Maximum altitude 23:36:14 24° 89° (E) 1,741 3.1 -21.5°
Enters shadow 23:38:17 20° 120° (ESE) 1,936 3.1 -21.5°
